Regional Weather Roundup
Issued by NWS Cleveland, OH

Home | Current Version | Previous Version | Text Only | Print | Product List | Glossary On
Versions: 1 2 3 4 5 6 7 8 9 10 11 12 13 14 15 16 17 18 19 20 21 22 23 24 25 26 27 28 29 30 31 32 33 34 35 36 37 38 39 40 41 42 43 44 45 46 47 48 49 50
000
ASUS41 KCLE 230010
RWRCLE
OHIO REGIONAL WEATHER ROUNDUP
NATIONAL WEATHER SERVICE CLEVELAND, OH
800 PM EDT MON SEP 22 2014

NOTE: "FAIR" INDICATES FEW OR NO CLOUDS BELOW 12,000 FEET WITH NO
SIGNIFICANT WEATHER AND/OR OBSTRUCTIONS TO VISIBILITY.

OHZ001>008-015>018-024>027-034-035-043-044-230100-
   NORTHWEST OHIO

CITY           SKY/WX    TMP DP  RH WIND       PRES   REMARKS
DEFIANCE       CLEAR    N/A N/A N/A CALM      30.22R
FINDLAY        CLEAR     58  42  55 W3        30.21R
TOLEDO EXPRESS CLEAR     56  44  64 CALM      30.22R
TOLEDO EXEC    CLEAR     58  41  53 CALM      30.23R
LIMA           CLEAR     58  43  57 SW3       30.22S
$$

OHZ009>014-019>023-028>033-038-089-230100-
   NORTHEAST OHIO

CITY           SKY/WX    TMP DP  RH WIND       PRES   REMARKS
CLE-HOPKINS    PTCLDY    51  42  71 CALM      30.25R
CLE-LAKEFRONT  PTCLDY    54  43  66 SW6       30.22R
CUY CO. ARPT   NOT AVBL
LORAIN-ELYRIA  CLEAR     54  45  71 SW3       30.23S
ASHTABULA      MOCLDY    48  44  86 CALM      30.23R
AKRON-CANTON   PTCLDY    51  41  68 N3        30.23R
WOOSTER        CLEAR     50  43  77 NE5       30.24R
MANSFIELD      CLEAR     53  41  63 CALM      30.23R
YOUNGSTOWN     MOCLDY    50  43  77 CALM      30.23R
$$

OHZ042-051>053-060>062-070>072-077>081-230100-
  SOUTHWEST OHIO

CITY           SKY/WX    TMP DP  RH WIND       PRES   REMARKS
CINC-COVINGTON CLEAR     59  43  55 NW6       30.23R
CINC-LUNKEN    CLEAR     56  48  74 CALM      30.23S
HAMILTON       CLEAR     53  47  79 N5        30.24R
DAYTON         CLEAR     60  41  49 N5        30.24R
WRIGHT-PAT AFB CLEAR     60  40  48 CALM      30.23R
DAYTON GENERAL CLEAR     58  41  53 CALM      30.22S
WILMINGTON     CLEAR     58  39  49 NW6       30.22S
$$

OHZ036-037-039>041-045>050-054>059-063>069-073>076-082>088-230100-
  CENTRAL AND SOUTHEAST OHIO

CITY           SKY/WX    TMP DP  RH WIND       PRES   REMARKS
COLUMBUS       CLEAR     58  40  51 N3        30.21S
OSU AIRPORT    CLEAR     55  39  54 NW3       30.22R
BOLTON FIELD   CLEAR     53  43  67 CALM      30.23
RICKENBACK AFB CLEAR     58  39  49 CALM      30.22R
NEWARK         CLEAR     51  43  74 CALM      30.22R
MARION         CLEAR     56  40  55 W3        30.22R
LANCASTER      CLEAR     51  43  74 NE3       30.23R
ZANESVILLE     CLEAR     55  41  59 CALM      30.22R
NEW PHILLY     CLEAR     49  43  80 CALM      30.24R
$$


USA.gov is the U.S. government's official web portal to all federal, state and local government web resources and services.